Flag for United Kingdom Weather past 2 weeks in Aberdeen, Scotland, United Kingdom

Now
52 °F

Cool.


Feels Like: 52 °F
Forecast: 55 / 70 °F
Wind: 2 mph from Northeast

Location: Aberdeen / Dyce

Current Time: Jul 25, 2014 at 4:53:21 AM

Latest Report: Jul 25, 2014 at 4:20 AM


Visibility: N/A

Pressure: 30.18 "Hg

Humidity: 94%

Dew point: 50 °F

Location of AberdeenLocation

Historic Weather in Aberdeen — Graph

°F

Aberdeen temperature yesterday

Maximum temperature yesterday: 73 °F (at 2:50 PM)
Minimum temperature yesterday: 52 °F (at 4:20 AM)
Average temperature yesterday: 63 °F

Past Weeks' High & Low Weather Summary

 TemperatureHumidityPressure
High73 °F (Jul 11, 1:20 PM)100% (Jul 13, 12:50 AM)30.33 "Hg (Jul 13, 12:50 AM)
Low48 °F (Jul 18, 4:20 AM)44% (Jul 11, 1:20 PM)29.62 "Hg (Jul 14, 7:50 PM)
Average60 °F83%30.00 "Hg
* Reported Jul 10 3:20 AM — Jul 25 3:50 AM, Aberdeen, Weather by CustomWeather, © 2014

Note: Actual official high and low records may vary slightly from our data, if they occured in-between our weather recording intervals... More about our weather records

Advertising

Aberdeen weather history for previous 24 hours

 ConditionsComfort  
Time TempWeatherWind HumidityBarometerVisibility
3:50 AM
Jul 25
52 °FCool.No wind100%30.18 "Hg6 mi
3:20 AM52 °FCool.2 mph100%30.18 "HgN/A
2:50 AM54 °FClear.No wind94%30.18 "Hg10 mi
2:20 AM54 °FCool.No wind94%30.18 "HgN/A
1:50 AM55 °FClear.No wind94%30.18 "Hg10 mi
1:20 AM55 °FCool.No wind94%30.18 "HgN/A
12:50 AM55 °FFog.3 mph94%30.18 "HgN/A
12:20 AM55 °FCool.3 mph94%30.18 "HgN/A
11:50 PM
Jul 24
55 °FClear.2 mph94%30.21 "Hg10 mi
11:20 PM59 °FClear.2 mph88%30.21 "Hg10 mi
10:50 PM59 °FClear.No wind94%30.21 "Hg10 mi
10:20 PM61 °FSunny.No wind88%30.21 "Hg10 mi
9:50 PM61 °FSunny.No wind88%30.21 "Hg10 mi
9:20 PM63 °FSunny.2 mph83%30.21 "Hg10 mi
8:50 PM64 °FSunny.6 mph78%30.18 "Hg10 mi
8:20 PM66 °FPassing clouds.5 mph68%30.18 "HgN/A
7:50 PM66 °FPassing clouds.5 mph68%30.18 "HgN/A
7:20 PM68 °FPassing clouds.7 mph64%30.18 "HgN/A
6:50 PM68 °FSunny.7 mph69%30.18 "Hg10 mi
6:20 PM70 °FPassing clouds.8 mph64%30.18 "HgN/A
5:50 PM70 °FPassing clouds.9 mph64%30.18 "HgN/A
5:20 PM72 °FSunny.8 mph57%30.21 "Hg10 mi
4:50 PM72 °FSunny.8 mph57%30.21 "Hg10 mi
4:20 PM73 °FSunny.8 mph53%30.21 "Hg10 mi
3:50 PM72 °FPassing clouds.9 mph57%30.21 "HgN/A
3:20 PM73 °FPassing clouds.10 mph53%30.21 "HgN/A
2:50 PM73 °FPassing clouds.8 mph53%30.21 "HgN/A
2:20 PM72 °FSunny.9 mph57%30.21 "Hg10 mi
1:50 PM72 °FPassing clouds.9 mph61%30.21 "HgN/A
1:20 PM72 °FPassing clouds.9 mph61%30.21 "HgN/A
12:50 PM72 °FPassing clouds.8 mph61%30.21 "HgN/A
12:20 PM72 °FSunny.8 mph61%30.21 "Hg10 mi
11:50 AM70 °FSunny.7 mph64%30.21 "Hg10 mi
11:20 AM70 °FSunny.8 mph64%30.21 "Hg10 mi
10:50 AM70 °FSunny.6 mph64%30.21 "Hg10 mi
10:20 AM70 °FPassing clouds.6 mph64%30.21 "HgN/A
9:50 AM70 °FSunny.3 mph69%30.21 "Hg10 mi
9:20 AM68 °FSunny.2 mph73%30.21 "Hg10 mi
8:50 AM64 °FSunny.No wind83%30.24 "Hg10 mi
8:20 AM61 °FSleet. Fog.No wind88%30.24 "HgN/A
7:50 AM57 °FFog.2 mph100%30.24 "HgN/A
7:20 AM55 °FCool.3 mph100%30.24 "HgN/A
6:50 AM54 °FCool.2 mph100%30.24 "HgN/A
6:20 AM52 °FSleet. Cloudy.No wind100%30.24 "HgN/A
5:50 AM54 °FFog.2 mph100%30.24 "Hg0 mi
5:20 AM52 °FDense fog.No wind100%30.24 "Hg0 mi
4:50 AM52 °FDense fog.No wind100%30.24 "Hg1 mi
4:20 AM52 °FFog.No wind100%30.24 "Hg0 mi
Weather by CustomWeather, © 2014

See weather overviewHow to use our weather pages